Vorticity
5 5 5 12 11 3 7 -1 7 6 0 7 3 3 2 2 4 3 4 4 8 7 8 6 11 9 6 9 8 5 8 8 6 4 6 7 7 10 10 4 3 5 5 4
5 3 5 4 4 5 19 13 -1 4 2 14 15 7 8 5 -1 1 2 3 4 4 5 7 4 7 10 7 9 7 5 7 9 7 7 7 5 7 12 14 4 2 5 4
6 2 4 4 8 6 10 -1 17 12 3 1 3 13 11 7 3 4 4 -3 -2 4 0 4 7 7 7 10 9 6 9 6 7 8 8 7 4 4 4 11 11 3 2 4
3 4 4 4 7 4 12 6 6 1 -1 2 8 10 1 6 5 6 3 -4 4 0 2 6 9 11 6 6 10 10 7 7 8 3 4 5 6 6 5 6 11 15 4 3
1 2 4 6 4 13 6 8 8 6 4 9 12 7 -1 3 8 13 3 4 -2 4 -3 14 3 4 10 7 7 7 12 9 5 1 5 7 5 2 4 3 6 14 12 3
3 8 6 6 4 10 7 1 0 2 7 13 -4 17 -9 3 3 1 4 8 7 21 -2 19 19 8 7 -1 6 14 7 7 10 10 10 9 5 6 4 5 6 10 17 7
5 4 5 7 9 6 7 6 7 5 7 7 3 -3 -1 4 3 3 4 9 13 -9 2 14 -1 12 -9 0 0 -1 14 11 4 6 10 7 5 10 7 9 9 10 12 10
5 6 8 9 7 3 5 7 11 6 19 -7 5 1 1 3 4 7 12 29 -1 -4 -15 3 -1 30 -10 2 6 2 5 16 5 7 18 6 10 11 8 5 6 10 12 12
10 8 8 4 5 14 17 12 14 14 16 1 3 6 5 8 5 16 9 17 -33 -0 9 -1 1 16 5 6 10 6 11 19 0 19 12 5 6 4 1 7 6 7 11 12
8 11 8 11 4 7 17 11 14 16 10 14 2 6 11 13 9 15 6 6 9 5 9 -7 -1 -1 13 9 0 4 8 7 13 9 7 6 16 1 10 2 7 11 7 9
10 6 6 9 12 16 13 9 9 12 9 6 11 5 2 7 5 -2 -3 -3 -1 -2 1 4 6 -0 -5 9 4 2 2 3 3 6 18 8 3 2 15 3 5 1 3 8
5 7 5 3 3 3 2 11 11 6 5 11 10 10 7 3 4 2 4 5 2 5 2 5 5 6 5 3 3 5 2 4 8 1 1 2 9 14 5 19 -0 1 13 9
7 3 2 3 6 8 4 5 3 7 9 2 5 8 10 8 10 4 3 -0 -0 -0 4 3 1 -1 -1 1 -1 -2 -2 2 1 1 -5 -1 3 5 4 8 17 1 5 10
13 16 11 13 6 5 5 7 8 12 13 11 11 12 9 5 2 11 14 8 6 8 6 0 -3 -4 -4 -3 -2 -4 -4 5 6 7 9 11 12 10 7 3 3 15 7 5
16 5 8 11 12 10 8 8 7 7 6 9 14 10 8 9 13 9 8 6 2 2 -2 -3 1 4 2 3 8 12 19 -10 5 15 2 11 6 2 9 10 7 2 14 4
5 13 10 5 6 7 7 6 5 5 5 6 7 7 6 10 7 4 8 6 3 2 11 9 9 6 3 3 2 -0 -1 -1 3 2 -10 -7 1 -3 -5 2 12 8 2 14
6 14 12 16 12 9 7 9 6 7 4 4 6 5 8 8 7 11 11 8 5 2 1 3 -2 -1 -0 -0 2 2 2 1 1 4 9 10 13 -0 -4 3 6 6 13 6
24 8 9 7 7 7 10 9 7 8 9 10 9 7 9 15 9 5 5 2 0 -3 -1 2 4 5 5 4 3 3 4 7 10 14 15 13 11 15 19 12 8 7 10 12
11 11 15 14 13 14 15 15 15 13 13 16 15 15 16 17 16 17 18 19 22 24 23 21 20 20 21 22 20 18 15 14 12 12 11 10 11 12 11 12 22 8 4 11
9 9 8 10 16 12 14 12 11 13 11 9 9 9 10 9 8 8 8 8 8 8 7 7 9 11 13 14 16 15 13 12 11 13 14 13 12 9 9 12 12 10 21 4
5 8 12 14 8 12 16 8 16 17 16 15 8 3 3 5 8 9 10 11 12 11 14 15 26 24 15 12 14 9 13 19 18 14 13 15 15 15 15 12 13 10 8 22
10 12 11 7 21 10 15 22 18 11 3 1 6 8 12 12 11 14 19 17 16 14 13 11 4 2 1 12 15 22 25 17 15 16 15 13 11 15 13 24 20 16 10 8
11 13 16 18 24 14 6 5 6 6 8 15 15 11 16 2 4 13 11 16 14 5 -5 -0 -1 21 18 13 22 20 29 40 35 27 22 17 14 14 20 18 25 25 17 13
12 12 12 11 9 6 7 8 12 13 10 12 9 8 6 10 16 20 21 19 20 29 27 25 24 19 12 30 8 13 25 25 19 31 44 44 37 11 15 25 17 27 29 15
13 10 6 6 9 10 9 8 7 8 2 9 10 5 12 25 28 11 11 11 15 14 12 20 7 34 29 19 12 11 38 28 28 34 17 14 22 37 29 28 25 23 31 18
8 5 7 11 -2 27 24 10 -0 11 14 10 9 16 25 17 6 12 10 18 7 16 10 23 11 32 25 46 27 34 21 -12 40 28 35 34 21 38 33 27 35 20 27 23
Height
5904 5904 5905 5911 5911 5910 5914 5915 5914 5916 5918 5919 5919 5919 5919 5920 5921 5922 5923 5925 5927 5927 5928 5927 5926 5927 5928 5930 5932 5933 5934 5935 5937 5939 5940 5940 5941 5943 5943 5944 5945 5947 5949 5948
5903 5903 5905 5904 5908 5909 5912 5913 5915 5916 5917 5919 5919 5920 5919 5919 5920 5921 5923 5924 5927 5928 5927 5928 5927 5928 5927 5928 5929 5931 5933 5936 5937 5938 5941 5942 5942 5943 5944 5944 5945 5945 5947 5948
5900 5902 5904 5905 5906 5907 5907 5910 5913 5915 5915 5916 5917 5920 5920 5920 5921 5922 5922 5924 5926 5927 5928 5927 5926 5927 5927 5928 5928 5930 5931 5932 5935 5937 5938 5940 5941 5941 5942 5943 5944 5946 5946 5946
5896 5897 5900 5903 5905 5906 5906 5907 5908 5910 5913 5914 5915 5918 5918 5918 5919 5921 5922 5922 5923 5924 5926 5927 5928 5928 5927 5927 5929 5929 5930 5933 5933 5932 5933 5935 5937 5939 5940 5941 5943 5944 5945 5945
5894 5895 5898 5900 5903 5904 5904 5903 5904 5905 5909 5910 5911 5912 5914 5915 5917 5919 5921 5921 5920 5919 5922 5925 5926 5928 5925 5924 5927 5929 5930 5933 5933 5932 5931 5932 5932 5933 5935 5936 5937 5940 5941 5942
5888 5891 5894 5896 5897 5899 5900 5901 5902 5902 5903 5905 5905 5907 5907 5908 5912 5913 5916 5918 5919 5920 5921 5916 5918 5921 5921 5922 5923 5927 5927 5929 5932 5932 5932 5931 5931 5932 5931 5932 5933 5933 5935 5938
5884 5886 5890 5891 5892 5893 5895 5898 5899 5899 5899 5902 5900 5901 5904 5904 5906 5908 5910 5913 5916 5918 5918 5917 5916 5917 5919 5921 5920 5923 5925 5926 5927 5929 5929 5929 5930 5931 5930 5928 5928 5929 5931 5931
5879 5881 5883 5885 5888 5889 5889 5892 5894 5895 5896 5895 5896 5896 5899 5901 5901 5902 5904 5906 5911 5911 5912 5913 5918 5920 5919 5920 5916 5918 5921 5922 5924 5925 5925 5926 5927 5928 5929 5927 5925 5924 5924 5927
5874 5876 5878 5878 5880 5883 5884 5886 5888 5889 5889 5890 5889 5891 5894 5896 5897 5898 5900 5903 5902 5907 5909 5909 5911 5913 5915 5914 5913 5915 5915 5915 5915 5917 5918 5920 5920 5920 5919 5920 5922 5921 5920 5920
5868 5871 5872 5874 5877 5878 5880 5882 5884 5884 5884 5882 5882 5885 5887 5890 5891 5892 5894 5895 5897 5901 5901 5902 5906 5907 5909 5909 5908 5910 5911 5911 5911 5913 5913 5912 5912 5913 5914 5914 5915 5916 5916 5916
5863 5865 5869 5871 5873 5873 5875 5876 5877 5879 5878 5876 5878 5880 5880 5883 5885 5886 5888 5890 5893 5895 5896 5897 5898 5902 5901 5901 5901 5901 5902 5903 5904 5906 5907 5907 5905 5905 5904 5905 5906 5905 5907 5909
5857 5859 5862 5865 5867 5868 5870 5873 5873 5873 5874 5874 5876 5877 5877 5878 5878 5879 5880 5883 5886 5887 5887 5887 5888 5888 5888 5889 5891 5893 5895 5896 5898 5898 5899 5899 5898 5897 5895 5894 5895 5897 5899 5900
5854 5856 5858 5859 5863 5863 5865 5868 5869 5869 5869 5870 5871 5872 5871 5871 5872 5872 5874 5875 5875 5876 5877 5878 5878 5879 5880 5881 5881 5882 5883 5884 5885 5887 5887 5886 5886 5887 5887 5885 5888 5887 5888 5890
5852 5854 5855 5857 5856 5859 5861 5862 5863 5866 5864 5865 5867 5866 5867 5866 5866 5867 5866 5866 5866 5866 5866 5866 5866 5866 5866 5866 5869 5870 5871 5871 5872 5872 5872 5873 5875 5875 5876 5877 5876 5878 5879 5879
5849 5849 5849 5851 5851 5853 5855 5854 5855 5859 5860 5860 5860 5860 5860 5860 5859 5859 5859 5859 5858 5858 5857 5857 5857 5858 5858 5857 5856 5854 5855 5857 5858 5859 5860 5859 5858 5859 5861 5863 5865 5866 5866 5867
5843 5841 5843 5844 5844 5846 5847 5847 5848 5850 5851 5852 5853 5853 5854 5854 5855 5854 5854 5853 5852 5850 5849 5846 5844 5842 5842 5839 5839 5838 5839 5840 5840 5843 5845 5844 5844 5844 5844 5846 5849 5852 5853 5852
5837 5836 5836 5838 5839 5839 5840 5840 5840 5841 5840 5841 5843 5846 5848 5848 5846 5845 5844 5844 5841 5839 5836 5833 5829 5825 5822 5820 5819 5818 5817 5818 5818 5819 5824 5826 5827 5827 5827 5830 5831 5835 5838 5840
5830 5830 5831 5832 5832 5832 5832 5830 5830 5832 5833 5832 5832 5834 5833 5834 5835 5835 5833 5830 5828 5824 5821 5817 5813 5811 5809 5805 5802 5799 5798 5798 5798 5800 5800 5800 5801 5805 5807 5808 5813 5815 5817 5822
5824 5825 5825 5825 5825 5824 5823 5823 5823 5821 5822 5822 5821 5821 5820 5819 5817 5817 5814 5813 5811 5808 5806 5803 5799 5796 5792 5787 5783 5780 5777 5774 5775 5776 5776 5776 5778 5781 5783 5785 5789 5795 5796 5801
5815 5815 5817 5817 5817 5816 5816 5814 5813 5813 5813 5812 5810 5809 5808 5805 5805 5803 5799 5796 5795 5792 5789 5786 5783 5779 5774 5768 5764 5761 5756 5753 5748 5750 5753 5753 5753 5754 5758 5762 5766 5771 5776 5779
5810 5810 5810 5810 5810 5809 5809 5807 5805 5804 5806 5802 5800 5798 5796 5795 5793 5790 5787 5783 5780 5775 5772 5769 5764 5759 5753 5749 5744 5740 5733 5729 5724 5724 5723 5726 5728 5729 5732 5735 5742 5746 5752 5757
5803 5803 5803 5803 5802 5802 5800 5798 5797 5795 5793 5793 5792 5788 5785 5782 5778 5775 5773 5768 5763 5760 5755 5751 5746 5740 5734 5729 5723 5715 5710 5706 5701 5698 5698 5697 5697 5701 5706 5709 5716 5722 5728 5736
5797 5797 5796 5797 5795 5793 5791 5789 5787 5786 5785 5782 5780 5777 5774 5770 5766 5762 5757 5753 5749 5744 5738 5733 5728 5721 5714 5707 5700 5694 5688 5682 5678 5674 5674 5673 5671 5675 5678 5684 5691 5698 5705 5715
5790 5790 5789 5789 5788 5786 5784 5782 5780 5777 5775 5772 5768 5764 5760 5755 5750 5745 5741 5737 5733 5727 5722 5716 5710 5704 5696 5689 5682 5674 5668 5662 5658 5654 5649 5645 5646 5651 5655 5660 5668 5673 5684 5694
5787 5785 5784 5783 5781 5779 5776 5773 5771 5768 5764 5759 5754 5750 5746 5742 5737 5734 5731 5728 5724 5718 5712 5703 5698 5691 5682 5673 5669 5662 5656 5649 5644 5638 5632 5629 5628 5630 5634 5639 5647 5656 5665 5675
5781 5779 5778 5777 5775 5771 5769 5765 5762 5758 5754 5748 5744 5739 5735 5731 5729 5725 5722 5719 5716 5710 5703 5696 5686 5676 5667 5665 5658 5653 5647 5640 5633 5628 5621 5616 5614 5612 5614 5621 5630 5642 5651 5660